ARIANE 5 R/B, 40876

Orbit data source: Space-Track

ARIANE 5 R/B, 40876 is space debris in HEO originally from a launch on Thu, 20 Aug 2015 UTC launched from the French Guiana (FRGUI). Debris objects in space refer to the collection of defunct objects orbiting the Earth. Examples of debris include non-operational satellites, rocket bodies, and fragments generated from explosions, collisions, or faulty payload assembly.

Loading next visibility...
Identifier
40876, 2015-039C
Orbit
HEO
Country
Flag of FRFR
Related business
Manufacturer
Airbus Safran
Mission
Spacecraft
Bus & Motor
ESC-A, Unknown motor
Mass
~5,000 kg wet, ~5,000 kg dry
Launch date (UTC)
2015-08-20 (11 years ago)
Launch vehicle
Unknown
Launch site
French Guiana (FRGUI)
Object type
Payload
Rocket body
Debris
Shape & HBR
Cyl + 1 Nozzle, 3.5 m
Radar Cross Section
41.627 m², Large (>1 m²)

Expand to show TLE details & history
Last TLE update: 2 days ago

TLE from 2 days ago
0 ARIANE 5 R/B
1 40876U 15039C   26171.14144353  .00001218  00000-0  56813-3 0  9993
2 40876   5.0127 147.1246 7042324  54.7058 352.2819  2.57185541 95011
Epoch: 2026-06-20T03:23Z
TLE epoch observation values (Epoch: 2026-06-20T03:23:40.720Z)
Latitude
0.00006°
Longitude
-172.49202°
Altitude
1,719.212 km
Speed
8.985 km/s
True Right ascension
09h 47m 09s
True Declination
0° 00' 00"
Sunlit
Object was in daylight at epoch
Visualization orbit readout
Latitude
Unknown
Longitude
Unknown
Altitude
Unknown
Speed
Unknown
Apparent Right ascension
Unknown
Apparent Declination
Unknown
Sunlit
N/A
Visualization observer readout
Local Sidereal Time
21:37:52
Azimuth
Unknown
Elevation
Unknown
Doppler factor
Unknown
Orbital elements
Apogee altitude
31,981.183 km
Perigee altitude
279.08 km
Semi-major axis
22,508.269 km
Eccentricity
0.70423
Inclination
5.0127°
RAAN
147.1246°
Arg. of periapsis
54.7058°
True anomaly
305.21573°
Mean anomaly
352.2819°
Eccentric anomaly
335.63716°
Mean motion
0.64273 °/min
Orbital period
560.11 mins
BSTAR
0.00056813
Loading maneuver chart data...
Computing Atmospheric mass density...
Loading historical data...
Loading historical data...
Loading historical data...
Loading historical data...
Loading historical data...
Loading historical data...
Loading historical data...
Other satellites on launch #39 in the year 2015 (2015-08-20 UTC)

Documentation

Showing up to 5 results
|